Find Starlink 35174

NORAD ID: 65615 Int'l Des: 2025-207 Owner: SPXS Country: US Constellation: starlink operational
LEOCIRCULARRETROGRADESSO

現在のビュー

3D地球を読み込み中...

About Starlink 35174

Starlink 35174 (NORAD 65615) is a starlink constellation satellite (v2 mini) launched Sep 13, 2025 by SPXS of US. It operates in LEO, CIRCULAR, RETROGRADE, SSO orbit with a mass of 575.00 kg.

Starlink 35174について

説明を読み込み中...

次回通過

Passes for default location (London). Set your location on the main map for personalized predictions.

高度履歴

Loading altitude history...

軌道要素

1 65615U 25207Z 26162.43172758 .00001460 00000-0 10512-3 0 9996
2 65615 97.3745 230.2127 0002218 91.5301 268.6180 15.05663192 42363
Epoch: Jun 11, 2026 • Age: 9 hours

現在のステータス

高度 579.4 km
速度 7.57 km/s
衛星直下点 -82.66°S, 128.3°E
打ち上げ日 Sep 13, 2025
運用期間 0.7 years
タイプ internet

技術仕様

分類 Payload
質量 575.00 kg
乾燥質量 530.00 kg
総質量 575.00 kg
長さ 0.30 m
直径 4.10 m
スパン 29.00 m
形状 Box + pan
製造者 SPXS
バスタイプ Starlink V2MO
フェーズステータス In Orbit
所有者/国 SPXS/US

Most Searched